Location: Étang Rond
(42.7927°N, 1.0661°E)
Time: 22:06:09
(UTC+00:00)

FengYun 1-2 T - Pass Details

Date: 08 November 2025
Orbit: 845 x 879 km, 98.8° (Epoch: 12 December)

Event Time Altitude Azimuth Distance (km) Brightness Sun altitude
Rises 04:50:58 0° 12° (NNE) 3,438 7.5 -20.0°
Reaches altitude 10° 04:53:20 10° 11° (NNE) 2,502 6.7 -19.6°
Maximum altitude 04:58:54 79° 287° (WNW) 886 4.1 -18.6°
Drops below altitude 10° 05:04:28 10° 201° (SSW) 2,508 6.5 -17.6°
Sets 05:06:51 0° 200° (SSW) 3,446 7.2 -17.1°
